Location: Neuvy Saint Sepulchre
(46.5953°N, 1.8122°E)
Time: 11:21:38
(UTC+02:00)

ISS - Pass Details

Date: 05 May 2021
Orbit: 417 x 422 km, 51.6° (Epoch: 15 May)

Event Time Altitude Azimuth Distance (km) Brightness Sun altitude
Exits shadow 05:07:07 12° 280° (W) 1,402 -1.5 -13.0°
Maximum altitude 05:10:01 38° 349° (N) 660 -2.5 -12.6°
Drops below altitude 10° 05:13:13 10° 60° (ENE) 1,508 0.5 -12.2°
Sets 05:15:25 0° 68° (ENE) 2,374 1.6 -11.9°
